Location: Buckeye Ditch
(40.9104°N, 122.9517°W)
Time: 01:33:34
(UTC+00:00)

SR - Pass Details

Date: 22 May 2025
Orbit: 570 x 855 km, 66.7° (Epoch: 11 June)

Event Time Altitude Azimuth Distance (km) Brightness Sun altitude
Exits shadow 09:39:30 - 281° (W) 2,550 ? -25.1°
Reaches altitude 10° 09:39:47 10° 283° (WNW) 2,488 ? -25.1°
Maximum altitude 09:43:16 16° 320° (NW) 2,086 ? -24.8°
Drops below altitude 10° 09:46:44 10° 357° (N) 2,472 ? -24.5°
Sets 09:50:13 0° 19° (NNE) 3,378 ? -24.2°
